TimeMST,TemperatureF,Dew PointF,Humidity,Sea Level PressureIn,VisibilityMPH,Wind Direction,Wind SpeedMPH,Gust SpeedMPH,PrecipitationIn,Events,Conditions,WindDirDegrees,DateUTC
12:57 AM,3.9,-2.9,73,30.33,10.0,Calm,Calm,-,N/A,,Clear,0,2013-01-05 07:57:00
1:57 AM,3.0,-4.0,73,30.33,10.0,Calm,Calm,-,N/A,,Clear,0,2013-01-05 08:57:00
2:57 AM,3.0,-4.0,73,30.34,10.0,Calm,Calm,-,N/A,,Clear,0,2013-01-05 09:57:00
3:57 AM,1.9,-6.0,69,30.35,10.0,Calm,Calm,-,N/A,,Clear,0,2013-01-05 10:57:00
4:57 AM,1.0,-6.0,72,30.39,10.0,Calm,Calm,-,N/A,,Clear,0,2013-01-05 11:57:00
5:57 AM,1.0,-6.0,72,30.44,10.0,Calm,Calm,-,N/A,,Clear,0,2013-01-05 12:57:00
6:57 AM,-0.0,-7.1,72,30.49,10.0,NE,3.5,-,N/A,,Clear,40,2013-01-05 13:57:00
7:57 AM,1.9,-5.1,72,30.51,10.0,Calm,Calm,-,N/A,,Clear,0,2013-01-05 14:57:00
8:57 AM,12.0,-2.0,53,30.50,10.0,Calm,Calm,-,N/A,,Clear,0,2013-01-05 15:57:00
9:57 AM,28.0,-0.0,30,30.43,10.0,Calm,Calm,-,N/A,,Clear,0,2013-01-05 16:57:00
10:57 AM,37.9,-2.0,18,30.40,10.0,Calm,Calm,-,N/A,,Clear,0,2013-01-05 17:57:00
11:57 AM,44.1,-2.9,14,30.35,10.0,Calm,Calm,-,N/A,,Clear,0,2013-01-05 18:57:00
12:57 PM,48.9,-4.0,11,30.30,10.0,Calm,Calm,-,N/A,,Clear,0,2013-01-05 19:57:00
1:57 PM,45.0,8.1,22,30.31,10.0,ENE,9.2,-,N/A,,Clear,60,2013-01-05 20:57:00
2:57 PM,43.0,12.0,28,30.33,10.0,Variable,5.8,-,N/A,,Clear,0,2013-01-05 21:57:00
3:57 PM,37.0,15.1,41,30.38,10.0,NE,8.1,-,N/A,,Clear,40,2013-01-05 22:57:00
4:57 PM,35.1,14.0,42,30.41,10.0,ENE,3.5,-,N/A,,Clear,60,2013-01-05 23:57:00
5:57 PM,27.0,12.0,53,30.46,10.0,Calm,Calm,-,N/A,,Clear,0,2013-01-06 00:57:00
6:57 PM,23.0,10.9,60,30.49,10.0,Calm,Calm,-,N/A,,Clear,0,2013-01-06 01:57:00
7:57 PM,19.9,9.0,62,30.49,10.0,Calm,Calm,-,N/A,,Clear,0,2013-01-06 02:57:00
8:57 PM,17.1,9.0,71,30.44,10.0,Calm,Calm,-,N/A,,Clear,0,2013-01-06 03:57:00
9:57 PM,14.0,7.0,74,30.37,10.0,Calm,Calm,-,N/A,,Clear,0,2013-01-06 04:57:00
10:57 PM,12.9,6.1,74,30.33,10.0,Calm,Calm,-,N/A,,Clear,0,2013-01-06 05:57:00
11:57 PM,10.0,5.0,80,30.31,10.0,Calm,Calm,-,N/A,,Clear,0,2013-01-06 06:57:00